Location: Sabalos
(43.2860°N, 0.1414°E)
Time: 07:35:43
(UTC+00:00)

Cosmos 1869 - Pass Details

Date: 05 July 2020
Orbit: 519 x 563 km, 82.5° (Epoch: 14 August)

Event Time Altitude Azimuth Distance (km) Brightness Sun altitude
Rises 22:01:38 0° 354° (N) 2,702 8.1 -18.3°
Reaches altitude 10° 22:03:48 10° 357° (N) 1,813 6.9 -18.5°
Maximum altitude 22:07:46 67° 81° (E) 598 3.3 -18.8°
Enters shadow 22:08:40 49° 141° (SE) 715 3.4 -18.9°
